Tracking 28790 objects as of 19-Apr-2024
HD Live streaming from Space Station
objects crossing your sky now

SL-14 R/B

Track SL-14 R/B now!
10-day predictions


NORAD ID: 16409
Int'l Code: 1985-119B
Perigee: 943.3 km
Apogee: 964.3 km
Inclination: 82.5 °
Period: 104.0 minutes
Semi major axis: 7324 km
RCS: 5.0426 m2 (large)
Launch date: December 26, 1985
Source: Commonwealth of Independent States (former USSR) (CIS)
Launch site: PLESETSK MISSILE AND SPACE COMPLEX (PKMTR)

Note: This is a ROCKET BODY
Your satellite tracking list
Your tracking list is empty




NASA's NSSDC Master Catalog

Two Line Element Set (TLE):
1 16409U 85119B   24109.70997419  .00000056  00000-0  36104-4 0  9995
2 16409  82.5388 171.0459 0014288 207.1313 152.9103 13.84866747936208
Source of the keplerian elements: AFSPC